TAM3315 SBBE-SBEG

Flight info

Callsign TAM3315
Flight time 1h 48m
Altitude 38000
Route ILMAN UZ81 KULAB
Aircraft A321/M-SDE3FGHIRWY/LB1

Departure

Time 2026-04-29 17:04
Airport Val de Cans/Júlio Cezar Ribeiro International Airport (SBBE)

Arrival

Time 2026-04-29 18:53
Airport Eduardo Gomes International Airport (SBEG)
Time Latitude Longitude Altitude Speed Heading
2026-04-29 16:53 -1.38960 -48.47880 43 ft 0 kts 275°
2026-04-29 16:56 -1.38960 -48.47874 43 ft 4 kts 276°
2026-04-29 16:56 -1.38965 -48.47848 43 ft 4 kts 291°
2026-04-29 16:57 -1.38979 -48.47826 43 ft 4 kts 326°
2026-04-29 16:57 -1.38995 -48.47820 43 ft 0 kts
2026-04-29 17:00 -1.38994 -48.47820 43 ft 1 kts
2026-04-29 17:00 -1.38957 -48.47817 43 ft 9 kts
2026-04-29 17:01 -1.38892 -48.47811 43 ft 11 kts
2026-04-29 17:01 -1.38797 -48.47802 43 ft 15 kts
2026-04-29 17:01 -1.38692 -48.47808 43 ft 15 kts 332°
2026-04-29 17:01 -1.38669 -48.47899 43 ft 15 kts 270°
2026-04-29 17:02 -1.38673 -48.48028 44 ft 21 kts 269°
2026-04-29 17:02 -1.38676 -48.48171 44 ft 19 kts 268°
2026-04-29 17:02 -1.38727 -48.48275 44 ft 17 kts 223°
2026-04-29 17:02 -1.38807 -48.48364 44 ft 17 kts 244°
2026-04-29 17:03 -1.38806 -48.48479 43 ft 13 kts 301°
2026-04-29 17:03 -1.38775 -48.48473 43 ft 0 kts 46°
2026-04-29 17:03 -1.38745 -48.48442 43 ft 28 kts 46°
2026-04-29 17:03 -1.38432 -48.48127 43 ft 97 kts 45°
2026-04-29 17:04 -1.37817 -48.47506 41 ft 152 kts 45°
2026-04-29 17:04 -1.37010 -48.46696 426 ft 164 kts 44°
2026-04-29 17:04 -1.36185 -48.45870 843 ft 177 kts 44°
2026-04-29 17:04 -1.35259 -48.44974 997 ft 200 kts 43°
2026-04-29 17:05 -1.34223 -48.43952 1121 ft 221 kts 45°
2026-04-29 17:05 -1.33084 -48.42806 1243 ft 245 kts 39°
2026-04-29 17:05 -1.31485 -48.42146 1658 ft 260 kts
2026-04-29 17:05 -1.29706 -48.42497 2185 ft 267 kts 332°
2026-04-29 17:06 -1.28371 -48.43791 2756 ft 275 kts 298°
2026-04-29 17:06 -1.27960 -48.45635 3320 ft 275 kts 262°
2026-04-29 17:06 -1.28609 -48.47420 3869 ft 276 kts 234°
2026-04-29 17:06 -1.29677 -48.49035 4514 ft 280 kts 233°
2026-04-29 17:07 -1.30766 -48.50654 5165 ft 283 kts 233°
2026-04-29 17:07 -1.31869 -48.52295 5815 ft 286 kts 233°
2026-04-29 17:07 -1.32978 -48.53959 6442 ft 289 kts 233°
2026-04-29 17:07 -1.34091 -48.55640 7054 ft 291 kts 234°
2026-04-29 17:08 -1.35213 -48.57339 7677 ft 294 kts 234°
2026-04-29 17:08 -1.36467 -48.58952 8313 ft 295 kts 223°
2026-04-29 17:08 -1.37914 -48.60411 8933 ft 298 kts 223°
2026-04-29 17:08 -1.39382 -48.61890 9532 ft 301 kts 224°
2026-04-29 17:09 -1.40857 -48.63381 10103 ft 305 kts 224°
2026-04-29 17:09 -1.42386 -48.64949 10256 ft 325 kts 225°
2026-04-29 17:09 -1.43945 -48.66674 10378 ft 344 kts 229°
2026-04-29 17:09 -1.45278 -48.68729 10561 ft 360 kts 243°
2026-04-29 17:10 -1.46132 -48.71111 10970 ft 368 kts 256°
2026-04-29 17:10 -1.46494 -48.73653 11462 ft 372 kts 266°
2026-04-29 17:10 -1.46667 -48.76241 12009 ft 375 kts 265°
2026-04-29 17:10 -1.46855 -48.78850 12504 ft 377 kts 265°
2026-04-29 17:11 -1.47049 -48.81474 13000 ft 380 kts 265°
2026-04-29 17:11 -1.47244 -48.84114 13485 ft 383 kts 265°
2026-04-29 17:11 -1.47437 -48.86780 13947 ft 386 kts 265°
2026-04-29 17:11 -1.47630 -48.89466 14371 ft 389 kts 265°
2026-04-29 17:12 -1.47823 -48.92168 14789 ft 391 kts 265°
2026-04-29 17:12 -1.48017 -48.94884 15224 ft 394 kts 265°
2026-04-29 17:12 -1.48214 -48.97632 15643 ft 397 kts 265°
2026-04-29 17:12 -1.48345 -48.99456 15909 ft 399 kts 265°
2026-04-29 17:13 -1.48612 -49.03173 16476 ft 403 kts 265°
2026-04-29 17:13 -1.48812 -49.05976 16879 ft 406 kts 265°
2026-04-29 17:13 -1.49010 -49.08762 17280 ft 409 kts 265°
2026-04-29 17:13 -1.49210 -49.11607 17697 ft 411 kts 265°
2026-04-29 17:14 -1.49491 -49.14460 18101 ft 414 kts 260°
2026-04-29 17:14 -1.49965 -49.17308 18457 ft 417 kts 260°
2026-04-29 17:14 -1.50444 -49.20177 18820 ft 420 kts 259°
2026-04-29 17:14 -1.50926 -49.23064 19178 ft 422 kts 259°
2026-04-29 17:15 -1.51412 -49.25964 19544 ft 424 kts 259°
2026-04-29 17:15 -1.51902 -49.28881 19890 ft 427 kts 259°
2026-04-29 17:15 -1.52390 -49.31811 20263 ft 429 kts 259°
2026-04-29 17:15 -1.52880 -49.34766 20622 ft 432 kts 260°
2026-04-29 17:16 -1.53371 -49.37737 20979 ft 434 kts 260°
2026-04-29 17:16 -1.53864 -49.40724 21324 ft 437 kts 260°
2026-04-29 17:16 -1.54362 -49.43727 21665 ft 439 kts 260°
2026-04-29 17:16 -1.54864 -49.46748 21981 ft 441 kts 259°
2026-04-29 17:17 -1.55370 -49.49783 22293 ft 444 kts 260°
2026-04-29 17:17 -1.55878 -49.52832 22602 ft 446 kts 260°
2026-04-29 17:17 -1.56387 -49.55899 22891 ft 448 kts 260°
2026-04-29 17:17 -1.56900 -49.58977 23185 ft 451 kts 260°
2026-04-29 17:18 -1.57415 -49.62074 23461 ft 453 kts 260°
2026-04-29 17:18 -1.57930 -49.65186 23696 ft 455 kts 260°
2026-04-29 17:18 -1.58445 -49.68312 23950 ft 456 kts 260°
2026-04-29 17:18 -1.58962 -49.71453 24201 ft 458 kts 260°
2026-04-29 17:19 -1.59481 -49.74589 24447 ft 459 kts 260°
2026-04-29 17:19 -1.60005 -49.77743 24673 ft 460 kts 260°
2026-04-29 17:19 -1.60529 -49.80901 24891 ft 462 kts 260°
2026-04-29 17:19 -1.61055 -49.84071 25122 ft 463 kts 260°
2026-04-29 17:20 -1.61584 -49.87252 25360 ft 465 kts 260°
2026-04-29 17:20 -1.62114 -49.90436 25604 ft 466 kts 260°
2026-04-29 17:20 -1.62646 -49.93634 25842 ft 467 kts 260°
2026-04-29 17:20 -1.63178 -49.96844 26082 ft 468 kts 260°
2026-04-29 17:21 -1.63708 -50.00060 26319 ft 470 kts 260°
2026-04-29 17:21 -1.64232 -50.03243 26549 ft 471 kts 260°
2026-04-29 17:21 -1.64762 -50.06476 26774 ft 472 kts 260°
2026-04-29 17:21 -1.65298 -50.09720 26999 ft 473 kts 260°
2026-04-29 17:22 -1.65840 -50.12971 27232 ft 475 kts 260°
2026-04-29 17:22 -1.66385 -50.16230 27462 ft 476 kts 260°
2026-04-29 17:22 -1.66928 -50.19493 27681 ft 478 kts 260°
2026-04-29 17:22 -1.67473 -50.22774 27908 ft 479 kts 260°
2026-04-29 17:23 -1.68020 -50.26060 28131 ft 480 kts 260°
2026-04-29 17:23 -1.68565 -50.29356 28344 ft 481 kts 260°
2026-04-29 17:23 -1.69110 -50.32665 28543 ft 482 kts 260°
2026-04-29 17:23 -1.69655 -50.35980 28743 ft 484 kts 260°
2026-04-29 17:24 -1.70201 -50.39295 28947 ft 485 kts 260°
2026-04-29 17:24 -1.70750 -50.42627 29167 ft 486 kts 260°
2026-04-29 17:24 -1.71302 -50.45968 29375 ft 488 kts 260°
2026-04-29 17:24 -1.71856 -50.49320 29579 ft 489 kts 260°
2026-04-29 17:25 -1.72414 -50.52679 29795 ft 491 kts 260°
2026-04-29 17:25 -1.72971 -50.56047 29995 ft 492 kts 260°
2026-04-29 17:25 -1.73529 -50.59421 30214 ft 491 kts 260°
2026-04-29 17:25 -1.74086 -50.62790 30502 ft 490 kts 261°
2026-04-29 17:26 -1.74641 -50.66141 30804 ft 488 kts 261°
2026-04-29 17:26 -1.75195 -50.69478 31086 ft 486 kts 261°
2026-04-29 17:26 -1.75747 -50.72805 31351 ft 485 kts 261°
2026-04-29 17:26 -1.76295 -50.76126 31621 ft 483 kts 261°
2026-04-29 17:27 -1.76841 -50.79435 31912 ft 481 kts 261°
2026-04-29 17:27 -1.77384 -50.82727 32191 ft 480 kts 261°
2026-04-29 17:27 -1.77928 -50.86019 32449 ft 480 kts 261°
2026-04-29 17:27 -1.78470 -50.89304 32736 ft 477 kts 262°
2026-04-29 17:28 -1.79006 -50.92572 33018 ft 476 kts 262°
2026-04-29 17:28 -1.79546 -50.95829 33268 ft 474 kts 261°
2026-04-29 17:28 -1.80085 -50.99072 33584 ft 472 kts 262°
2026-04-29 17:28 -1.80613 -51.02257 33811 ft 470 kts 262°
2026-04-29 17:29 -1.81666 -51.08649 33863 ft 463 kts 262°
2026-04-29 17:29 -1.82534 -51.13927 33863 ft 462 kts 261°
2026-04-29 17:30 -1.83762 -51.21343 33862 ft 462 kts 262°
2026-04-29 17:30 -1.84806 -51.27676 33862 ft 462 kts 262°
2026-04-29 17:31 -1.85853 -51.34008 33865 ft 461 kts 261°
2026-04-29 17:31 -1.86896 -51.40340 33872 ft 462 kts 261°
2026-04-29 17:32 -1.87929 -51.46674 33876 ft 462 kts 261°
2026-04-29 17:32 -1.88971 -51.53005 33875 ft 461 kts 261°
2026-04-29 17:33 -1.90010 -51.59285 33876 ft 461 kts 261°
2026-04-29 17:33 -1.91055 -51.65606 33883 ft 460 kts 262°
2026-04-29 17:34 -1.92098 -51.71947 33883 ft 460 kts 262°
2026-04-29 17:34 -1.93131 -51.78210 33881 ft 459 kts 262°
2026-04-29 17:35 -1.94700 -51.87689 33873 ft 459 kts 262°
2026-04-29 17:36 -1.95734 -51.93969 33872 ft 459 kts 262°
2026-04-29 17:36 -1.96756 -52.00235 33875 ft 460 kts 262°
2026-04-29 17:37 -1.97617 -52.05488 33878 ft 460 kts 261°
2026-04-29 17:37 -1.98831 -52.12850 33879 ft 459 kts 262°
2026-04-29 17:38 -1.99871 -52.19166 33878 ft 460 kts 262°
2026-04-29 17:38 -2.00738 -52.24428 33877 ft 460 kts 262°
2026-04-29 17:39 -2.01771 -52.30752 33874 ft 459 kts 262°
2026-04-29 17:39 -2.02791 -52.37020 33881 ft 459 kts 262°
2026-04-29 17:40 -2.03834 -52.43330 33881 ft 459 kts 262°
2026-04-29 17:40 -2.04869 -52.49592 33882 ft 458 kts 261°
2026-04-29 17:41 -2.05888 -52.55888 33873 ft 458 kts 262°
2026-04-29 17:41 -2.06897 -52.62170 33873 ft 459 kts 262°
2026-04-29 17:42 -2.07927 -52.68504 33871 ft 459 kts 262°
2026-04-29 17:42 -2.08948 -52.74775 33873 ft 460 kts 262°
2026-04-29 17:43 -2.09978 -52.81092 33879 ft 460 kts 262°
2026-04-29 17:43 -2.11007 -52.87396 33877 ft 460 kts 262°
2026-04-29 17:44 -2.12041 -52.93739 33877 ft 460 kts 262°
2026-04-29 17:44 -2.13057 -53.00018 33876 ft 459 kts 262°
2026-04-29 17:45 -2.14073 -53.06298 33872 ft 459 kts 262°
2026-04-29 17:45 -2.15111 -53.12629 33865 ft 459 kts 262°
2026-04-29 17:46 -2.16138 -53.18908 33860 ft 459 kts 262°
2026-04-29 17:46 -2.17170 -53.25221 33864 ft 460 kts 262°
2026-04-29 17:47 -2.18204 -53.31548 33859 ft 461 kts 262°
2026-04-29 17:47 -2.19223 -53.37868 33858 ft 461 kts 262°
2026-04-29 17:48 -2.20251 -53.44195 33862 ft 461 kts 262°
2026-04-29 17:48 -2.21289 -53.50525 33867 ft 462 kts 262°
2026-04-29 17:49 -2.22328 -53.56859 33872 ft 462 kts 262°
2026-04-29 17:49 -2.23362 -53.63197 33874 ft 462 kts 262°
2026-04-29 17:50 -2.24400 -53.69540 33871 ft 462 kts 262°
2026-04-29 17:50 -2.25431 -53.75881 33872 ft 462 kts 262°
2026-04-29 17:51 -2.26448 -53.82183 33871 ft 462 kts 262°
2026-04-29 17:51 -2.27480 -53.88531 33874 ft 463 kts 262°
2026-04-29 17:52 -2.28519 -53.94875 33875 ft 462 kts 262°
2026-04-29 17:52 -2.29551 -54.01220 33866 ft 462 kts 262°
2026-04-29 17:53 -2.30587 -54.07560 33868 ft 462 kts 262°
2026-04-29 17:53 -2.31617 -54.13900 33868 ft 462 kts 262°
2026-04-29 17:54 -2.32653 -54.20250 33866 ft 462 kts 262°
2026-04-29 17:54 -2.33681 -54.26585 33869 ft 462 kts 262°
2026-04-29 17:55 -2.34708 -54.32939 33869 ft 462 kts 262°
2026-04-29 17:55 -2.35745 -54.39279 33868 ft 462 kts 262°
2026-04-29 17:56 -2.36783 -54.45623 33871 ft 462 kts 262°
2026-04-29 17:56 -2.37802 -54.51931 33874 ft 463 kts 263°
2026-04-29 17:57 -2.38717 -54.58298 33879 ft 462 kts 264°
2026-04-29 17:57 -2.39556 -54.64674 33884 ft 462 kts 264°
2026-04-29 17:58 -2.40407 -54.71050 33881 ft 462 kts 264°
2026-04-29 17:58 -2.41291 -54.77407 33879 ft 459 kts 263°
2026-04-29 17:59 -2.42165 -54.83727 33872 ft 460 kts 263°
2026-04-29 17:59 -2.43042 -54.90065 33869 ft 462 kts 264°
2026-04-29 18:00 -2.43926 -54.96430 33857 ft 461 kts 263°
2026-04-29 18:00 -2.44805 -55.02778 33861 ft 461 kts 263°
2026-04-29 18:01 -2.45685 -55.09146 33863 ft 463 kts 264°
2026-04-29 18:01 -2.46569 -55.15516 33871 ft 463 kts 262°
2026-04-29 18:02 -2.47494 -55.21910 33880 ft 467 kts 261°
2026-04-29 18:02 -2.48366 -55.28299 33858 ft 459 kts 262°
2026-04-29 18:03 -2.49177 -55.34645 33813 ft 457 kts 265°
2026-04-29 18:03 -2.50041 -55.40916 33818 ft 459 kts 264°
2026-04-29 18:04 -2.50806 -55.47245 33817 ft 455 kts 265°
2026-04-29 18:04 -2.51476 -55.53539 33827 ft 453 kts 264°
2026-04-29 18:05 -2.52198 -55.59844 33826 ft 460 kts 264°
2026-04-29 18:05 -2.52943 -55.66283 33858 ft 469 kts 264°
2026-04-29 18:06 -2.53690 -55.72812 34005 ft 474 kts 264°
2026-04-29 18:06 -2.54060 -55.76086 34106 ft 473 kts 265°
2026-04-29 18:06 -2.54417 -55.79366 34213 ft 475 kts 264°
2026-04-29 18:06 -2.54789 -55.82650 34371 ft 477 kts 263°
2026-04-29 18:07 -2.55185 -55.85930 34579 ft 477 kts 263°
2026-04-29 18:07 -2.55580 -55.89207 34806 ft 473 kts 264°
2026-04-29 18:07 -2.55970 -55.92475 35012 ft 471 kts 263°
2026-04-29 18:07 -2.56348 -55.95729 35143 ft 472 kts 265°
2026-04-29 18:08 -2.56707 -55.98993 35325 ft 474 kts 264°
2026-04-29 18:08 -2.57072 -56.02277 35618 ft 472 kts 264°
2026-04-29 18:08 -2.57451 -56.05550 35831 ft 473 kts 265°
2026-04-29 18:09 -2.58218 -56.12066 35867 ft 472 kts 264°
2026-04-29 18:09 -2.58950 -56.18517 35865 ft 470 kts 264°
2026-04-29 18:10 -2.59679 -56.25024 35869 ft 475 kts 263°
2026-04-29 18:10 -2.60442 -56.31546 35861 ft 472 kts 264°
2026-04-29 18:11 -2.61186 -56.38057 35852 ft 470 kts 263°
2026-04-29 18:11 -2.61934 -56.44557 35858 ft 467 kts 264°
2026-04-29 18:12 -2.62681 -56.51054 35851 ft 473 kts 263°
2026-04-29 18:12 -2.63442 -56.57577 35872 ft 472 kts 264°
2026-04-29 18:13 -2.64228 -56.64100 35886 ft 473 kts 264°
2026-04-29 18:13 -2.64955 -56.70636 35887 ft 471 kts 264°
2026-04-29 18:14 -2.65692 -56.77161 35891 ft 473 kts 264°
2026-04-29 18:14 -2.66444 -56.83722 35884 ft 475 kts 264°
2026-04-29 18:15 -2.67217 -56.90292 35871 ft 473 kts 265°
2026-04-29 18:15 -2.67970 -56.96815 35866 ft 469 kts 264°
2026-04-29 18:16 -2.68697 -57.03290 35848 ft 469 kts 264°
2026-04-29 18:16 -2.69439 -57.09774 35853 ft 469 kts 264°
2026-04-29 18:17 -2.70198 -57.16259 35873 ft 468 kts 264°
2026-04-29 18:17 -2.70957 -57.22661 35862 ft 467 kts 265°
2026-04-29 18:18 -2.71700 -57.29141 35861 ft 473 kts 264°
2026-04-29 18:18 -2.72431 -57.35684 35872 ft 473 kts 264°
2026-04-29 18:19 -2.73168 -57.42180 35869 ft 467 kts 265°
2026-04-29 18:19 -2.73926 -57.48645 35876 ft 468 kts 265°
2026-04-29 18:20 -2.74673 -57.55074 35844 ft 465 kts 264°
2026-04-29 18:20 -2.75393 -57.61515 35847 ft 466 kts 264°
2026-04-29 18:21 -2.76115 -57.67974 35847 ft 467 kts 264°
2026-04-29 18:21 -2.76853 -57.74381 35861 ft 467 kts 264°
2026-04-29 18:22 -2.77594 -57.80872 35870 ft 467 kts 264°
2026-04-29 18:22 -2.78202 -57.86240 35871 ft 467 kts 264°
2026-04-29 18:23 -2.79061 -57.93785 35886 ft 467 kts 264°
2026-04-29 18:23 -2.79677 -57.99143 35885 ft 467 kts 264°
2026-04-29 18:24 -2.80415 -58.05589 35884 ft 466 kts 264°
2026-04-29 18:24 -2.81153 -58.12028 35880 ft 466 kts 264°
2026-04-29 18:25 -2.82007 -58.19509 35880 ft 466 kts 264°
2026-04-29 18:25 -2.82617 -58.24865 35866 ft 467 kts 264°
2026-04-29 18:26 -2.83363 -58.31368 35862 ft 468 kts 264°
2026-04-29 18:26 -2.84092 -58.37796 35865 ft 469 kts 264°
2026-04-29 18:27 -2.84834 -58.44320 35840 ft 470 kts 264°
2026-04-29 18:27 -2.85201 -58.47536 35105 ft 475 kts 264°
2026-04-29 18:27 -2.85562 -58.50834 34400 ft 479 kts 265°
2026-04-29 18:27 -2.85828 -58.54164 33691 ft 481 kts 267°
2026-04-29 18:28 -2.86000 -58.57510 33037 ft 481 kts 268°
2026-04-29 18:28 -2.86117 -58.60846 32486 ft 479 kts 269°
2026-04-29 18:28 -2.86218 -58.64165 31978 ft 476 kts 269°
2026-04-29 18:28 -2.86331 -58.67457 31481 ft 473 kts 268°
2026-04-29 18:29 -2.86466 -58.70736 30975 ft 470 kts 268°
2026-04-29 18:29 -2.86621 -58.73992 30483 ft 467 kts 267°
2026-04-29 18:29 -2.86787 -58.77230 29992 ft 464 kts 267°
2026-04-29 18:29 -2.86955 -58.80454 29428 ft 462 kts 267°
2026-04-29 18:30 -2.87118 -58.83650 28876 ft 458 kts 267°
2026-04-29 18:30 -2.87279 -58.86822 28344 ft 455 kts 267°
2026-04-29 18:30 -2.87437 -58.89971 27814 ft 452 kts 267°
2026-04-29 18:30 -2.87591 -58.93099 27316 ft 448 kts 267°
2026-04-29 18:31 -2.87740 -58.96206 26815 ft 445 kts 267°
2026-04-29 18:31 -2.87887 -58.99290 26329 ft 442 kts 267°
2026-04-29 18:31 -2.88032 -59.02354 25842 ft 440 kts 267°
2026-04-29 18:31 -2.88177 -59.05392 25369 ft 437 kts 267°
2026-04-29 18:32 -2.88324 -59.08427 24912 ft 434 kts 267°
2026-04-29 18:32 -2.88615 -59.14425 24051 ft 430 kts 267°
2026-04-29 18:32 -2.88761 -59.17404 23642 ft 428 kts 267°
2026-04-29 18:33 -2.88905 -59.20330 23217 ft 426 kts 267°
2026-04-29 18:33 -2.89050 -59.23284 22761 ft 423 kts 267°
2026-04-29 18:33 -2.89193 -59.26213 22328 ft 420 kts 267°
2026-04-29 18:33 -2.89330 -59.29101 22078 ft 411 kts 267°
2026-04-29 18:34 -2.89463 -59.31919 21947 ft 400 kts 267°
2026-04-29 18:34 -2.89549 -59.33742 21862 ft 392 kts 267°
2026-04-29 18:34 -2.89721 -59.37315 21694 ft 376 kts 267°
2026-04-29 18:34 -2.89846 -59.39891 21573 ft 365 kts 267°
2026-04-29 18:35 -2.89966 -59.42389 21448 ft 354 kts 267°
2026-04-29 18:35 -2.90080 -59.44812 21323 ft 344 kts 267°
2026-04-29 18:35 -2.90192 -59.47188 20830 ft 347 kts 267°
2026-04-29 18:35 -2.90308 -59.49600 20539 ft 342 kts 267°
2026-04-29 18:36 -2.90420 -59.51943 20365 ft 334 kts 267°
2026-04-29 18:36 -2.90478 -59.54247 20077 ft 330 kts 276°
2026-04-29 18:36 -2.89930 -59.56444 19763 ft 325 kts 297°
2026-04-29 18:36 -2.88686 -59.58258 19423 ft 319 kts 319°
2026-04-29 18:37 -2.86871 -59.59533 19068 ft 313 kts 339°
2026-04-29 18:37 -2.84826 -59.60091 18725 ft 307 kts 359°
2026-04-29 18:37 -2.82726 -59.59944 18381 ft 301 kts 18°
2026-04-29 18:37 -2.80820 -59.59141 18015 ft 296 kts 36°
2026-04-29 18:38 -2.79311 -59.57796 17846 ft 290 kts 54°
2026-04-29 18:38 -2.78297 -59.56065 17854 ft 290 kts 71°
2026-04-29 18:38 -2.77841 -59.54108 17860 ft 290 kts 83°
2026-04-29 18:38 -2.77644 -59.52098 17857 ft 290 kts 87°
2026-04-29 18:39 -2.77536 -59.50075 17861 ft 296 kts 88°
2026-04-29 18:39 -2.77453 -59.47951 17631 ft 311 kts 88°
2026-04-29 18:39 -2.77368 -59.45785 17374 ft 312 kts 88°
2026-04-29 18:39 -2.77274 -59.43617 17134 ft 311 kts 88°
2026-04-29 18:40 -2.77168 -59.41458 17034 ft 310 kts 88°
2026-04-29 18:40 -2.77129 -59.39307 17051 ft 310 kts 97°
2026-04-29 18:40 -2.77692 -59.37235 17054 ft 310 kts 116°
2026-04-29 18:40 -2.78928 -59.35470 17052 ft 312 kts 135°
2026-04-29 18:41 -2.85032 -59.33817 17055 ft 323 kts 194°
2026-04-29 18:41 -2.87074 -59.34772 17054 ft 328 kts 215°
2026-04-29 18:42 -2.88800 -59.36298 16717 ft 338 kts 220°
2026-04-29 18:42 -2.90502 -59.37955 15988 ft 348 kts 232°
2026-04-29 18:42 -2.91596 -59.40132 15388 ft 354 kts 251°
2026-04-29 18:42 -2.92352 -59.42490 14504 ft 356 kts 251°
2026-04-29 18:43 -2.93091 -59.44831 13663 ft 351 kts 251°
2026-04-29 18:43 -2.93819 -59.47148 12731 ft 347 kts 251°
2026-04-29 18:43 -2.94541 -59.49432 11825 ft 342 kts 251°
2026-04-29 18:43 -2.95256 -59.51683 10988 ft 336 kts 251°
2026-04-29 18:44 -2.95946 -59.53850 10588 ft 317 kts 251°
2026-04-29 18:44 -2.96605 -59.55919 10004 ft 308 kts 251°
2026-04-29 18:44 -2.97253 -59.57944 9298 ft 303 kts 251°
2026-04-29 18:44 -2.97894 -59.59941 8603 ft 301 kts 251°
2026-04-29 18:45 -2.98531 -59.61928 8273 ft 298 kts 251°
2026-04-29 18:45 -2.99164 -59.63907 7902 ft 297 kts 251°
2026-04-29 18:45 -2.99794 -59.65870 7495 ft 298 kts 251°
2026-04-29 18:45 -3.00422 -59.67829 7221 ft 293 kts 252°
2026-04-29 18:46 -3.01042 -59.69766 6872 ft 292 kts 252°
2026-04-29 18:46 -3.01664 -59.71704 6431 ft 295 kts 252°
2026-04-29 18:46 -3.02296 -59.73676 5994 ft 297 kts 252°
2026-04-29 18:46 -3.02921 -59.75630 5677 ft 290 kts 252°
2026-04-29 18:47 -3.03514 -59.77491 5350 ft 272 kts 252°
2026-04-29 18:47 -3.03900 -59.79286 5034 ft 256 kts 266°
2026-04-29 18:47 -3.03911 -59.80978 4762 ft 238 kts 270°
2026-04-29 18:47 -3.03901 -59.82595 4452 ft 229 kts 269°
2026-04-29 18:48 -3.03897 -59.84182 4133 ft 227 kts 269°
2026-04-29 18:48 -3.03894 -59.85735 3776 ft 221 kts 269°
2026-04-29 18:48 -3.03891 -59.87240 3466 ft 211 kts 269°
2026-04-29 18:48 -3.03888 -59.88674 3207 ft 202 kts 269°
2026-04-29 18:49 -3.03887 -59.90047 2948 ft 193 kts 268°
2026-04-29 18:49 -3.03885 -59.91364 2703 ft 186 kts 269°
2026-04-29 18:49 -3.03883 -59.92655 2463 ft 184 kts 269°
2026-04-29 18:49 -3.03881 -59.93931 2228 ft 182 kts 269°
2026-04-29 18:50 -3.03878 -59.95190 2026 ft 178 kts 266°
2026-04-29 18:50 -3.03875 -59.96403 1774 ft 172 kts 269°
2026-04-29 18:50 -3.03873 -59.97596 1519 ft 169 kts 269°
2026-04-29 18:50 -3.03870 -59.98743 1294 ft 161 kts 269°
2026-04-29 18:51 -3.03870 -59.99840 1076 ft 155 kts 269°
2026-04-29 18:51 -3.03870 -60.00920 860 ft 156 kts 271°
2026-04-29 18:51 -3.03870 -60.01989 651 ft 153 kts 272°
2026-04-29 18:51 -3.03867 -60.03045 472 ft 150 kts 271°
2026-04-29 18:52 -3.03862 -60.04085 272 ft 146 kts 272°
2026-04-29 18:52 -3.03859 -60.04877 268 ft 75 kts 270°
2026-04-29 18:52 -3.03858 -60.05341 267 ft 61 kts 270°
2026-04-29 18:52 -3.03857 -60.05734 268 ft 53 kts 270°
2026-04-29 18:53 -3.03857 -60.06002 269 ft 25 kts 270°
2026-04-29 18:53 -3.03855 -60.06136 270 ft 16 kts 289°
2026-04-29 18:53 -3.03755 -60.06169 268 ft 17 kts 13°
2026-04-29 18:53 -3.03693 -60.06078 268 ft 17 kts 84°
2026-04-29 18:54 -3.03691 -60.05955 268 ft 18 kts 90°
2026-04-29 18:54 -3.03692 -60.05829 268 ft 19 kts 90°
2026-04-29 18:54 -3.03691 -60.05697 268 ft 19 kts 90°
2026-04-29 18:54 -3.03690 -60.05560 268 ft 20 kts 89°
2026-04-29 18:55 -3.03682 -60.05419 268 ft 21 kts 83°
2026-04-29 18:55 -3.03655 -60.05276 269 ft 21 kts 76°
2026-04-29 18:55 -3.03617 -60.05132 268 ft 21 kts 76°
2026-04-29 18:55 -3.03579 -60.05001 268 ft 18 kts 65°
2026-04-29 18:56 -3.03511 -60.04909 268 ft 15 kts 44°
2026-04-29 18:56 -3.03438 -60.04854 268 ft 12 kts 39°
2026-04-29 18:56 -3.03390 -60.04800 268 ft 9 kts 56°
2026-04-29 18:56 -3.03362 -60.04738 268 ft 11 kts 73°
2026-04-29 18:57 -3.03354 -60.04656 268 ft 12 kts 92°
2026-04-29 18:57 -3.03348 -60.04590 268 ft 7 kts 56°
2026-04-29 18:57 -3.03313 -60.04578 268 ft 5 kts
2026-04-29 18:57 -3.03284 -60.04580 268 ft 3 kts 354°
2026-04-29 18:58 -3.03274 -60.04581 268 ft 0 kts 356°
2026-04-29 18:58 -3.03273 -60.04581 268 ft 0 kts 356°